Location: Adair
(33.3137°N, 90.0906°W)
Time: 11:46:42
(UTC+00:00)

ISS - Visible Passes

Search period start: 08 May 2026 00:00
Search period end: 18 May 2026 00:00
Orbit: 414 x 424 km, 51.6° (Epoch: 8 May)

Date Brightness Start Highest point End Pass type
(mag) Time Alt. Az. Time Alt. Az. Time Alt. Az.
8 May -3.5 01:48:36 10° SSW 01:51:48 44° SE 01:54:59 10° ENE visible
8 May -0.8 03:26:30 10° WNW 03:28:44 17° NNW 03:29:47 15° N visible
8 May -0.3 08:22:16 10° N 08:23:37 12° NNE 08:24:58 10° NE visible
8 May -3.9 09:57:26 10° NW 10:00:48 85° SW 10:04:10 10° SE visible
9 May -1.5 02:38:10 10° W 02:41:01 26° NW 02:43:54 10° NNE visible
9 May -2.8 09:10:02 11° NW 09:13:14 49° NE 09:16:30 10° ESE visible
10 May -2.6 01:50:10 10° WSW 01:53:22 45° NW 01:56:36 10° NE visible
10 May -2.5 10:02:06 22° SW 10:02:15 22° SW 10:04:54 10° S visible
11 May -0.3 02:41:53 10° NW 02:42:59 11° NNW 02:44:05 10° N visible
12 May -0.7 01:52:55 10° WNW 01:55:10 17° NNW 01:57:25 10° N visible
